Location: LDNL
(36.4545°S, 141.6685°E)
Time: 03:21:03
(UTC+10:00)

Courier 1B Rocket - Pass Details

Date: 04 June 2024
Orbit: 920 x 1201 km, 28.3° (Epoch: 14 June)

Event Time Altitude Azimuth Distance (km) Brightness Sun altitude
Exits shadow 04:34:09 13° 1° (N) 2,807 7.4 -36.3°
Drops below altitude 10° 04:35:33 10° 11° (N) 3,058 7.7 -36.0°
Sets 04:39:38 0° 30° (NNE) 4,052 8.6 -35.2°
